TimeCDT,TemperatureF,Dew PointF,Humidity,Sea Level PressureIn,VisibilityMPH,Wind Direction,Wind SpeedMPH,Gust SpeedMPH,PrecipitationIn,Events,Conditions,WindDirDegrees,DateUTC
12:53 AM,66.9,62.1,84,29.72,10.0,NW,4.6,-,N/A,,Clear,320,2013-06-30 05:53:00
1:53 AM,66.0,62.1,87,29.72,10.0,WNW,4.6,-,N/A,,Clear,290,2013-06-30 06:53:00
2:53 AM,64.9,62.1,90,29.72,10.0,WNW,5.8,-,N/A,,Clear,290,2013-06-30 07:53:00
3:53 AM,64.9,62.1,90,29.72,10.0,NW,8.1,-,N/A,,Clear,320,2013-06-30 08:53:00
4:53 AM,64.0,61.0,90,29.73,10.0,NNW,6.9,-,N/A,,Clear,330,2013-06-30 09:53:00
5:53 AM,64.0,61.0,90,29.75,10.0,NW,6.9,-,N/A,,Clear,310,2013-06-30 10:53:00
6:53 AM,64.9,62.1,90,29.76,10.0,NW,4.6,-,N/A,,Mostly Cloudy,320,2013-06-30 11:53:00
7:53 AM,69.1,64.0,84,29.78,10.0,NNW,10.4,-,N/A,,Mostly Cloudy,330,2013-06-30 12:53:00
8:38 AM,69.8,64.4,83,29.80,10.0,NNW,9.2,-,N/A,,Overcast,330,2013-06-30 13:38:00
8:53 AM,70.0,64.0,81,29.80,10.0,NW,9.2,-,N/A,,Overcast,320,2013-06-30 13:53:00
9:05 AM,69.8,64.4,83,29.81,10.0,NNW,9.2,-,N/A,,Overcast,330,2013-06-30 14:05:00
9:31 AM,69.8,64.4,83,29.81,9.0,NNW,9.2,-,0.00,Rain,Light Rain,330,2013-06-30 14:31:00
9:53 AM,70.0,64.0,81,29.81,10.0,NNW,10.4,-,0.01,,Overcast,340,2013-06-30 14:53:00
10:19 AM,71.6,64.4,78,29.82,10.0,North,9.2,-,N/A,,Overcast,350,2013-06-30 15:19:00
10:53 AM,73.0,64.0,73,29.81,10.0,North,11.5,-,0.00,,Scattered Clouds,360,2013-06-30 15:53:00
11:53 AM,75.9,63.0,64,29.81,10.0,North,15.0,-,N/A,,Mostly Cloudy,360,2013-06-30 16:53:00
12:53 PM,79.0,63.0,58,29.80,10.0,North,10.4,19.6,N/A,,Scattered Clouds,350,2013-06-30 17:53:00
1:53 PM,77.0,62.1,60,29.80,10.0,North,12.7,-,N/A,,Mostly Cloudy,360,2013-06-30 18:53:00
2:53 PM,79.0,62.1,56,29.79,10.0,NNW,16.1,19.6,N/A,,Scattered Clouds,340,2013-06-30 19:53:00
3:53 PM,80.1,61.0,52,29.78,10.0,North,11.5,-,0.00,,Mostly Cloudy,360,2013-06-30 20:53:00
4:53 PM,80.1,62.1,54,29.80,10.0,North,17.3,24.2,N/A,,Mostly Cloudy,350,2013-06-30 21:53:00
5:53 PM,78.1,62.1,58,29.79,10.0,NNW,10.4,-,N/A,,Partly Cloudy,340,2013-06-30 22:53:00
6:53 PM,75.0,63.0,66,29.81,10.0,NNW,9.2,-,N/A,,Scattered Clouds,330,2013-06-30 23:53:00
7:53 PM,69.1,64.0,84,29.83,10.0,NNW,10.4,-,0.00,Rain,Light Rain,330,2013-07-01 00:53:00
8:53 PM,68.0,63.0,84,29.83,10.0,NNW,9.2,-,0.00,,Overcast,330,2013-07-01 01:53:00
9:53 PM,66.9,63.0,87,29.86,10.0,NNW,6.9,-,N/A,,Partly Cloudy,330,2013-07-01 02:53:00
10:53 PM,68.0,64.0,87,29.86,9.0,NW,6.9,-,N/A,,Clear,320,2013-07-01 03:53:00
11:53 PM,68.0,64.0,87,29.85,10.0,NNW,8.1,-,0.00,Rain,Light Rain,340,2013-07-01 04:53:00